This is the latest recevied weather packets stored in our database for station/object W7TJC. If no packets are shown the sender has not sent any weather packets the latest 10 day(s).
| Time | Temp. | Humidity | Pressure | Rain* | Wind** | Luminosity | Snow |
|---|---|---|---|---|---|---|---|
| 1778027366 | 16.67° C | 77% | 1016.3 hPa | 0 mm | - | 16 W/m² | - |
| 1778027062 | 16.67° C | 77% | 1016.4 hPa | 0 mm | - | 16 W/m² | - |
| 1778026757 | 16.67° C | 76% | 1016.5 hPa | 0 mm | - | 35 W/m² | - |
| 1778026455 | 16.67° C | 75% | 1016.3 hPa | 0 mm | - | 17 W/m² | - |
| 1778026152 | 16.67° C | 77% | 1016.3 hPa | 0 mm | - | 23 W/m² | - |
| 1778025849 | 16.67° C | 76% | 1016.4 hPa | 0 mm | - | 25 W/m² | - |
| 1778025546 | 16.67° C | 76% | 1016.7 hPa | 0 mm | - | 27 W/m² | - |
| 1778025244 | 16.67° C | 76% | 1016.5 hPa | 0 mm | - | 22 W/m² | - |
| 1778024940 | 16.67° C | 75% | 1016.5 hPa | 0 mm | - | 19 W/m² | - |
| 1778024638 | 17.22° C | 76% | 1016.6 hPa | 0 mm | - | 20 W/m² | - |
| 1778024334 | 17.22° C | 76% | 1016.8 hPa | 0 mm | - | 21 W/m² | - |
| 1778024033 | 16.67° C | 76% | 1016.7 hPa | 0 mm | - | 26 W/m² | - |
| 1778023730 | 16.67° C | 76% | 1016.6 hPa | 0 mm | - | 25 W/m² | - |
| 1778023428 | 16.67° C | 76% | 1016.9 hPa | 0 mm | - | 31 W/m² | - |
| 1778023124 | 16.67° C | 76% | 1016.9 hPa | 0 mm | - | 33 W/m² | - |
| 1778022822 | 16.67° C | 76% | 1017 hPa | 0 mm | - | 28 W/m² | - |
| 1778022520 | 16.11° C | 77% | 1016.9 hPa | 0 mm | - | 40 W/m² | - |
| 1778022217 | 16.67° C | 77% | 1017.1 hPa | 0 mm | - | 74 W/m² | - |
| 1778021913 | 16.11° C | 77% | 1017.2 hPa | 0 mm | - | 92 W/m² | - |
| 1778021610 | 16.67° C | 77% | 1017.2 hPa | 0 mm | - | 91 W/m² | - |
| 1778021305 | 16.11° C | 78% | 1017.2 hPa | 0 mm | - | 88 W/m² | - |
| 1778021004 | 16.11° C | 77% | 1017.2 hPa | 0 mm | - | 103 W/m² | - |
| 1778020700 | 16.11° C | 78% | 1017.2 hPa | 0 mm | - | 73 W/m² | - |
| 1778020398 | 15.56° C | 78% | 1017.2 hPa | 0 mm | - | 109 W/m² | - |
| 1778020093 | 15.56° C | 78% | 1017.3 hPa | 0 mm | - | 89 W/m² | - |
* Rain latest hour (hover to see other rain measurements)
** Current wind speed in m/s (hover to see current wind gust speed)